Regional Weather Roundup
Issued by NWS New Orleans/Baton Rouge, LA

Home | Current Version | Previous Version | Graphics & Text | Print | Product List | Glossary On
Versions: 1 2 3 4 5 6 7 8 9 10 11 12 13 14 15 16 17 18 19 20 21 22 23 24 25 26 27 28 29 30 31 32 33 34 35 36 37 38 39 40 41 42 43 44 45 46 47 48 49 50
935
ASUS44 KLIX 191211
RWRLIX
NEW ORLEANS REGIONAL WEATHER ROUNDUP
NATIONAL WEATHER SERVICE NEW ORLEANS LA
700 AM CDT SUN APR 19 2015

NOTE: "FAIR" INDICATES FEW OR NO CLOUDS BELOW 12,000 FEET WITH NO
      SIGNIFICANT WEATHER AND/OR OBSTRUCTIONS TO VISIBILITY.
      SKY/WX - SKY CONDITION AND SIGNIFICANT WEATHER.
      TMP - AIR TEMPERATURE.     DP    - DEWPOINT TEMPERATURE.
      RH  - RELATIVE HUMIDITY.   PRES  - PRESSURE.
      HI  - HEAT INDEX.          WCI   - WIND CHILL INDEX.

*  THESE STATIONS ARE NOT NWS OR FAA STATIONS AND ARE NOT UNDER
   NWS QUALITY CONTROL.

LAZ038-040-048-061>063-065>067-069-191300-
SOUTHEAST LOUISIANA

CITY           SKY/WX    TMP DP  RH WIND       PRES   REMARKS
N.O. AUDUBON     N/A      0  70 100 MISG        N/A
6HR MIN TEMP:  70; 6HR MAX TEMP:  73;

N.O. INTL ARPT CLOUDY    71  68  90 W12       29.77F
6HR MIN TEMP:  70; 6HR MAX TEMP:  72;

N.O. LAKEFRONT CLOUDY    75  70  84 W17       29.75F
6HR MIN TEMP:  73; 6HR MAX TEMP:  76;

SLIDELL        CLOUDY    72  70  93 VRB6      29.75F
6HR MIN TEMP:  72; 6HR MAX TEMP:  73;

BATON ROUGE    CLEAR     68  66  93 S6        29.74F
6HR MIN TEMP:  68; 6HR MAX TEMP:  71;

BOOTHVILLE     CLOUDY    73  72  96 NW3       29.78R
6HR MIN TEMP:  70; 6HR MAX TEMP:  73; 6HR PCP:  0.32;

BELLE CHASSE   CLOUDY    72  69  90 W7        29.75F
6HR MIN TEMP:  69; 6HR MAX TEMP:  72;

BOGALUSA*        N/A     72  67  85 W5        29.78F
6HR MIN TEMP:  70; 6HR MAX TEMP:  73;

GALLIANO*      CLOUDY    73  70  92 W7        29.77F
6HR MIN TEMP:  69; 6HR MAX TEMP:  73; 6HR PCP:  0.01;

NEW ROADS*       N/A     66  65  97 S3        29.74F
6HR MIN TEMP:  66; 6HR MAX TEMP:  71;

GONZALES*        N/A     70  70  99 W7G17     29.76F
6HR MIN TEMP:  69; 6HR MAX TEMP:  72;

HAMMOND*       PTCLDY    70  66  88 W5        29.77F
HOUMA*         NOT AVBL
PORT FOURCHON* NOT AVBL

$$

MSZ070-080>082-191300-
SOUTHERN MISSISSIPPI

CITY           SKY/WX    TMP DP  RH WIND       PRES   REMARKS
MCCOMB         PTCLDY    68  67  96 SW7       29.75F
6HR MIN TEMP:  68; 6HR MAX TEMP:  70; 6HR PCP:  0.09;

GULFPORT       CLOUDY    72  69  90 NW6       29.76S
6HR MIN TEMP:  72; 6HR MAX TEMP:  74;

BILOXI         CLOUDY    72  72 100 VRB1      29.75F
6HR MIN TEMP:  72; 6HR MAX TEMP:  73; 6HR PCP: TRACE;

PASCAGOULA     CLOUDY    72  70  93 VRB3      29.75S
6HR MIN TEMP:  69; 6HR MAX TEMP:  73; 6HR PCP: TRACE;

STENNIS ARPT*  CLOUDY    70  66  88 MISG      29.76

$$

COASTAL OBSERVATIONS
LAKE AND NEARSHORE STATIONS

STATION/POSITION TIME  TEMP    WIND        PRES    WAVE
                       AIR SEA DIR/SP/G            HT/PER
                 (UTC) (F)     (DEG/KT/KT) (MB)    (FT/S)
PASCAGOULA       1100   73     250/  7/  8 1006.8
WAVELAND YACHT   1100   71 73  290/  3/  5 1008.0
GRAND ISLE       1100   74 74  290/ 13/ 16 1007.3
SOUTHWEST PASS   1100   69 63  230/ 16/ 19 1008.3
NEW CANAL        1100   72     260/  6/  8 1008.6
SHELL BEACH      1100   72 75  270/  9/ 10 1007.2

OFFSHORE STATIONS

STATION/POSITION TIME  TEMP    WIND        PRES    WAVE
                       AIR SEA DIR/SP/G            HT/PER
                 (UTC) (F)     (DEG/KT/KT) (MB)    (FT/S)
64 S DAUPHIN ISL 1150   74 74  220/ 14/ 16 1008.1    4/ 6

$$




USA.gov is the U.S. government's official web portal to all federal, state and local government web resources and services.